Weather History for Sundsvall-Harnosand Airpor, t

Change the Weather History Date:

Friday, January 18, 2013

  Actual Average Record
Temperature  
Mean Temperature -6 °F -  
Max Temperature 0 °F - - ()
Min Temperature -12 °F - - ()
Degree Days  
Heating Degree Days 71    
Moisture  
Dew Point -10 °F    
Average Humidity 81    
Maximum Humidity 92    
Minimum Humidity 67    
Precipitation  
Precipitation 0.00 in - - ()
Sea Level Pressure  
Sea Level Pressure 30.20 in    
Wind  
Wind Speed 2 mph ()    
Max Wind Speed 5 mph    
Max Gust Speed -    
Visibility 6.8 miles    
Events Snow    
T = Trace of Precipitation, MM = Missing Value Source: Averaged Metar Reports

Daily Weather History Graph

Daily Weather History Graph

Search for Another Location

Airport:

Trip Planner

Search our weather history database for the weather conditions in past years. The results will help you decide how hot, cold, wet, or windy it might be!

Date:

Astronomy

Jan. 18, 2013 Rise Set
Actual Time 8:53 AM CET 3:08 PM CET
Civil Twilight 7:54 AM CET 4:07 PM CET
Nautical Twilight 6:55 AM CET 5:06 PM CET
Astronomical Twilight 6:01 AM CET 6:00 PM CET
Moon 9:47 AM CET (1/18) 12:08 AM CET (1/18)
Length of Visible Light 8h 12m
Length of Day
6h 14m
Waxing Crescent, 45% of the Moon is Illuminated
Jan 18
Waxing Crescent
Jan 19
First Quarter
Jan 27
Full
Feb 3
Last Quarter
Feb 10
New

Hourly Weather History & Observations

Time (CET) Temp. Windchill Dew Point Humidity Pressure Visibility Wind Dir Wind Speed Gust Speed Precip Events Conditions
12:00 AM -11 °F - -16 °F 67% 30.36 in 31 mi Calm Calm - -   Scattered Clouds
12:20 AM -11.2 °F - -14.8 °F 84% 30.33 in - Variable 2.3 mph - N/A   Clear
12:50 AM -7.6 °F -18.8 °F -13.0 °F 77% 30.33 in - NW 4.6 mph - N/A   Clear
1:00 AM -8 °F - -13 °F 70% 30.35 in 31 mi NNW 2.2 mph - -  
1:20 AM -9.4 °F -18.6 °F -13.0 °F 84% 30.33 in - WNW 3.5 mph - N/A   Clear
1:50 AM -7.6 °F -18.8 °F -13.0 °F 77% 30.33 in - NW 4.6 mph - N/A   Clear
2:00 AM -8 °F - -12 °F 75% 30.34 in 31 mi NW 2.2 mph - -  
2:20 AM -7.6 °F -18.8 °F -13.0 °F 77% 30.33 in - NW 4.6 mph - N/A   Clear
2:50 AM -9.4 °F -20.9 °F -13.0 °F 84% 30.30 in 6.2 mi WNW 4.6 mph - N/A   Unknown
3:00 AM -9 °F - -13 °F 71% 30.32 in 31 mi NW 4.5 mph - -  
3:20 AM -9.4 °F -20.9 °F -13.0 °F 84% 30.30 in 6.2 mi WNW 4.6 mph - N/A   Unknown
3:50 AM -9.4 °F -18.6 °F -13.0 °F 84% 30.30 in 6.2 mi West 3.5 mph - N/A   Unknown
4:20 AM -11.2 °F - -14.8 °F 84% 30.30 in 6.2 mi Variable 2.3 mph - N/A   Unknown
4:50 AM -9.4 °F -18.6 °F -14.8 °F 77% 30.30 in 6.2 mi WNW 3.5 mph - N/A   Unknown
5:00 AM -10 °F - -14 °F 74% 30.30 in 31 mi NW 2.2 mph - -  
5:20 AM -9.4 °F - -14.8 °F 77% 30.27 in 6.2 mi Variable 2.3 mph - N/A   Unknown
5:50 AM -11.2 °F - -14.8 °F 84% 30.27 in - Variable 2.3 mph - N/A   Clear
6:00 AM -10 °F - -14 °F 72% 30.29 in 31 mi NW 2.2 mph - -  
6:20 AM -11.2 °F - -16.6 °F 77% 30.27 in - Calm Calm - N/A   Clear
6:50 AM -11.2 °F -20.6 °F -14.8 °F 84% 30.27 in - West 3.5 mph - N/A   Clear
7:00 AM -10 °F - -14 °F 71% 30.28 in 31 mi NNW 2.2 mph - -  
7:20 AM -11.2 °F - -14.8 °F 84% 30.24 in - Calm Calm - N/A   Clear
7:50 AM -9.4 °F - -14.8 °F 77% 30.27 in - Variable 2.3 mph - N/A   Clear
8:00 AM -10 °F - -14 °F 75% 30.27 in 31 mi NNW 2.2 mph - -  
8:20 AM -9.4 °F - -14.8 °F 77% 30.24 in - Variable 2.3 mph - N/A   Clear
8:50 AM -9.4 °F - -13.0 °F 84% 30.24 in - West 2.3 mph - N/A   Clear
9:00 AM -10 °F - -14 °F 71% 30.27 in 31 mi NNW 4.5 mph - -  
9:20 AM -9.4 °F -18.6 °F -13.0 °F 84% 30.24 in - West 3.5 mph - N/A   Clear
9:50 AM -9.4 °F -18.6 °F -13.0 °F 84% 30.24 in - West 3.5 mph - N/A   Clear
10:20 AM -9.4 °F -18.6 °F -13.0 °F 84% 30.24 in - WNW 3.5 mph - N/A   Clear
10:50 AM -7.6 °F -16.5 °F -13.0 °F 77% 30.21 in - West 3.5 mph - N/A   Clear
11:00 AM -8 °F - -12 °F 75% 30.24 in 31 mi WNW 4.5 mph - -  
11:20 AM -7.6 °F - -11.2 °F 84% 30.21 in - West 2.3 mph - N/A   Clear
11:50 AM -4.0 °F -12.4 °F -9.4 °F 78% 30.21 in - WNW 3.5 mph - N/A   Clear
12:00 PM -4 °F - -8 °F 71% 30.22 in 28 mi Calm Calm - -   Scattered Clouds
12:20 PM -4.0 °F - -7.6 °F 85% 30.18 in - West 2.3 mph - N/A   Clear
12:50 PM -2.2 °F - -7.6 °F 78% 30.18 in - West 1.2 mph - N/A   Clear
1:00 PM -3 °F - -6 °F 78% 30.19 in 31 mi Calm Calm - -   Scattered Clouds
1:20 PM -2.2 °F - -5.8 °F 85% 30.18 in - Variable 1.2 mph - N/A   Clear
1:50 PM -2.2 °F - -5.8 °F 85% 30.18 in - WSW 1.2 mph - N/A   Clear
2:00 PM -2 °F - -6 °F 73% 30.19 in 31 mi Calm Calm - -   Scattered Clouds
2:20 PM -2.2 °F - -5.8 °F 85% 30.18 in - Variable 2.3 mph - N/A   Clear
2:50 PM -4.0 °F - -7.6 °F 85% 30.15 in - WSW 2.3 mph - N/A   Clear
3:00 PM -4 °F - -7 °F 78% 30.17 in 31 mi North 2.2 mph - -  
3:20 PM -4.0 °F - -7.6 °F 85% 30.15 in - Calm Calm - N/A   Clear
3:50 PM -4.0 °F - -7.6 °F 85% 30.15 in 6.2 mi Calm Calm - N/A Snow Light Snow
4:20 PM -5.8 °F - -9.4 °F 84% 30.12 in 6.2 mi Calm Calm - N/A   Mostly Cloudy
4:50 PM -4.0 °F - -5.8 °F 92% 30.12 in 6.2 mi Calm Calm - N/A   Overcast
5:00 PM -3 °F - -6 °F 79% 30.14 in 31 mi North 2.2 mph - -   Overcast
5:20 PM -2.2 °F - -5.8 °F 85% 30.12 in 6.2 mi Calm Calm - N/A   Overcast
5:50 PM -2.2 °F - -4.0 °F 92% 30.12 in 6.2 mi North 2.3 mph - N/A   Overcast
6:00 PM -1 °F - -4 °F 80% 30.13 in 19 mi NNE 2.2 mph - - Snow Light Snow
6:20 PM -0.4 °F - -4.0 °F 85% 30.12 in 6.2 mi Calm Calm - N/A Snow Light Snow
6:50 PM 1.4 °F - -2.2 °F 85% 30.09 in 6.2 mi NW 1.2 mph - N/A   Ice Crystals
7:00 PM 0 °F - -3 °F 83% 30.11 in 31 mi NNE 2.2 mph - - Snow Snow
7:20 PM -0.4 °F - -4.0 °F 85% 30.09 in 6.2 mi NW 1.2 mph - N/A   Ice Crystals
7:50 PM -2.2 °F - -5.8 °F 85% 30.09 in - NW 2.3 mph - N/A   Clear
8:00 PM -3 °F - -5 °F 83% 30.10 in 31 mi North 4.5 mph - - Snow Snow
8:20 PM -2.2 °F - -5.8 °F 85% 30.09 in - Variable 1.2 mph - N/A   Clear
8:50 PM -5.8 °F - -7.6 °F 92% 30.06 in 6.2 mi Calm Calm - N/A   Unknown
9:00 PM -5 °F - -8 °F 82% 30.08 in 31 mi NNE 2.2 mph - -  
9:20 PM -4.0 °F - -7.6 °F 85% 30.06 in 6.2 mi North 1.2 mph - N/A   Unknown
9:50 PM -4.0 °F - -5.8 °F 92% 30.06 in 6.2 mi NW 2.3 mph - N/A   Unknown
10:20 PM -4.0 °F - -7.6 °F 85% 30.04 in 6.2 mi NNW 2.3 mph - N/A   Unknown
10:50 PM -2.2 °F - -5.8 °F 85% 30.04 in 6.2 mi NNW 2.3 mph - N/A   Unknown
11:00 PM -4 °F - -7 °F 82% 30.05 in 31 mi North 2.2 mph - -   Mostly Cloudy
11:20 PM -4.0 °F - -5.8 °F 92% 30.04 in 6.2 mi NNW 2.3 mph - N/A   Mostly Cloudy
11:50 PM -2.2 °F - -5.8 °F 85% 30.04 in 6.2 mi North 1.2 mph - N/A   Unknown